Simultaneous Nadir Overpasses (SNOs) Predictions

Prediction of SNOs between NOAA-19 and TERRA Satellite Orbit:

Table of predicted SNOs for the next 14.0 days since TLE Epoch: 11/8/2015
Index Date (NOAA-19) Time (NOAA-19) Lat,Lon (NOAA-19) SZA (NOAA-19 ) Date (TERRA) Time (TERRA) Lat,Lon (TERRA) SZA (TERRA ) Distance(km) Time Diff (sec)
1 11/10/2015 06:19:31 -72.73, -89.84 90.11 11/10/2015 06:20:04 -72.74, -89.89 90.09 2.32 33
2 11/10/2015 07:10:35 72.63, 77.60 89.82 11/10/2015 07:09:31 72.65, 77.59 89.83 2.81 64
3 11/12/2015 11:03:02 -73.57,-162.53 88.74 11/12/2015 11:04:08 -73.46,-159.50 88.70 96.25 66
4 11/12/2015 11:53:50 72.71, 6.66 90.50 11/12/2015 11:53:48 72.69, 6.59 90.47 3.11 2
5 11/12/2015 12:44:34 -72.07, 175.25 90.07 11/12/2015 12:43:26 -72.15, 173.23 90.10 69.93 68
6 11/14/2015 16:37:05 72.81, -64.31 91.16 11/14/2015 16:38:04 72.77, -64.32 91.14 3.48 59
7 11/14/2015 17:28:00 -72.68, 103.22 88.94 11/14/2015 17:27:33 -72.71, 103.19 88.92 3.45 27
8 11/16/2015 22:11:16 -72.80, 32.19 88.28 11/16/2015 22:11:49 -72.79, 32.26 88.29 3.24 33
9 11/16/2015 23:02:18 72.69,-160.33 91.63 11/16/2015 23:01:16 72.69,-160.27 91.62 1.74 62
10 11/19/2015 03:45:32 72.75, 128.78 92.21 11/19/2015 03:45:32 72.75, 128.77 92.21 0.72 0
11 11/19/2015 04:36:19 -72.17, -62.75 88.31 11/19/2015 04:35:10 -72.22, -64.59 88.36 62.69 69
12 11/21/2015 08:28:46 72.81, 57.88 92.77 11/21/2015 08:29:48 72.80, 57.80 92.76 2.70 62
13 11/21/2015 09:19:44 -72.75,-134.74 87.29 11/21/2015 09:19:17 -72.75,-134.67 87.29 2.24 27




NCC Satellite Simultaneous Nadir Overpasses (SNOs) Prediction Service
